Amendola, Italy

2:22 AM CEST on September 16, 2019 (GMT +0200)
Amendola Mil

Weather History for LIBA - August, 2019

Change the Weather History Date:

Sunday, August 25, 2019

  Actual Average Record
Temperature  
Mean Temperature 79 °F -  
Max Temperature 92 °F 83 °F 102 °F (2004)
Min Temperature 66 °F 60 °F 60 °F (1997)
Cooling Degree Days 14    
Growing Degree Days 29 (Base 50)    
Moisture  
Dew Point 68 °F    
Average Humidity 71    
Maximum Humidity 100    
Minimum Humidity 32    
Precipitation  
Precipitation 0.20 in 0.06 in - ()
Sea Level Pressure  
Sea Level Pressure 29.99 in    
Wind  
Wind Speed 7 mph ()    
Max Wind Speed 12 mph    
Max Gust Speed 24 mph    
Visibility 6.6 miles    
Events Rain , Thunderstorm    
Averages and records for this station are not official NWS values.
T = Trace of Precipitation, MM = Missing Value Source: Averaged Metar Reports

Daily Weather History Graph

Daily Weather History Graph

Search for Another Location

Airport or City:

Astronomy

Aug. 25, 2019 Rise Set
Actual Time 6:15 AM CEST 7:42 PM CEST
Civil Twilight 5:46 AM CEST 8:11 PM CEST
Nautical Twilight 5:11 AM CEST 8:46 PM CEST
Astronomical Twilight 4:34 AM CEST 9:22 PM CEST
Moon 12:35 AM CEST (8/25) 3:46 PM CEST (8/25)
Length of Visible Light 14h 24m
Length of Day
13h 26m
Waning Crescent, 32% of the Moon is Illuminated
Aug 25
Waning Crescent
Aug 30
New
Sep 6
First Quarter
Sep 14
Full
Sep 22
Last Quarter

Hourly Weather History & Observations

Time (CEST) Temp. Heat Index Dew Point Humidity Pressure Visibility Wind Dir Wind Speed Gust Speed Precip Events Conditions
12:55 AM 73.4 °F - 68.0 °F 83% 30.01 in - West 8.1 mph - N/A   Clear
1:55 AM 71.6 °F - 66.2 °F 83% 30.01 in - West 9.2 mph - N/A   Clear
2:00 AM 72 °F - 66 °F 77% 30.01 in 7 mi West 9.2 mph - -  
2:55 AM 71.6 °F - 64.4 °F 78% 30.01 in - West 8.1 mph - N/A   Clear
4:55 AM 69.8 °F - 66.2 °F 88% 30.01 in - West 6.9 mph - N/A   Clear
6:55 AM 66.2 °F - 66.2 °F 100% 29.98 in - WNW 4.6 mph - N/A   Clear
7:55 AM 69.8 °F - 66.2 °F 88% 29.98 in - West 5.8 mph - N/A   Clear
8:00 AM 71 °F - 66 °F 79% 29.99 in 12 mi West 5.8 mph - -  
8:55 AM 77.0 °F - 68.0 °F 74% 30.01 in - WNW 6.9 mph - N/A   Clear
10:55 AM 86.0 °F 89.4 °F 68.0 °F 55% 30.01 in 6.2 mi West 6.9 mph - N/A   Partly Cloudy
11:55 AM 87.8 °F 90.4 °F 66.2 °F 49% 30.01 in 6.2 mi West 5.8 mph - N/A   Partly Cloudy
1:55 PM 89.6 °F 91.1 °F 64.4 °F 43% 29.98 in 6.2 mi Variable 5.8 mph - N/A   Partly Cloudy
2:00 PM 90 °F - 64 °F 32% 29.97 in 7 mi 5.8 mph - -   Scattered Clouds
2:55 PM 91.4 °F 96.8 °F 69.8 °F 49% 29.95 in 6.2 mi ESE 4.6 mph - N/A   Partly Cloudy
3:55 PM 87.8 °F 92.6 °F 69.8 °F 55% 29.95 in 6.2 mi NE 8.1 mph - N/A   Partly Cloudy
5:00 PM 90 °F - 70 °F 43% 29.95 in 7 mi NE 6.9 mph - -   Scattered Clouds
5:55 PM 86.0 °F 90.4 °F 69.8 °F 58% 29.95 in 6.2 mi ESE 11.5 mph - N/A   Partly Cloudy
6:14 PM 86.0 °F 93.4 °F 73.4 °F 66% 29.98 in 6.2 mi SSE 11.5 mph 24.2 mph N/A Thunderstorm Thunderstorm
7:55 PM 71.6 °F - 68.0 °F 88% 30.01 in 5.0 mi WNW 11.5 mph - N/A Rain , Thunderstorm Light Thunderstorms and Rain
8:00 PM 72 °F - 69 °F 85% 30.01 in 5 mi WNW 11.5 mph - - Rain , Thunderstorm Thunderstorms and Rain
10:55 PM 71.6 °F - 69.8 °F 94% 30.01 in - West 9.2 mph - N/A   Clear
11:55 PM 71.6 °F - 69.8 °F 94% 30.01 in - West 8.1 mph - N/A   Clear